Powrót do katalogu

ARIANE 42P+ DEB

LostHEO
NORAD 34194·DEBRIS·🇫🇷 France

Wystrzelony Oct 28, 1992 z Guiana Space Centre

Loading…

Następne Przeloty (najbliższe 24 godziny)

TLE

NieaktualneSource: Space-Track

Epoka: May 13, 2026, 16:12 UTC

1 34194U 92072AA  26133.67549614  .00510522  00000-0  13969+0 0  9990
2 34194   9.7578 136.2187 5532786 281.6012  23.9592  4.73059852196967

Śledź ARIANE 42P+ DEB w czasie rzeczywistym z AllMySat

Download on the App Store